Station NFDF1 - 8720215 - Navy Fuel Depot, St Johns River, FL Image indicating link to RSS feed of recent meteorological observations for station NFDF1


Conditions at NFDF1 as of
(4:48 am EST)
0948 GMT on 11/28/2023:
     

Click on the graph icon in the table below to see a time series plot of the last five days of that observation.

5-day plot - Wind Direction Wind Direction (WDIR):WNW ( 290 deg true )
5-day plot - Wind Speed Wind Speed (WSPD): 1.9 kts
5-day plot - Wind Gust Wind Gust (GST): 7.0 kts
5-day plot - Atmospheric Pressure Atmospheric Pressure (PRES):30.15 in
5-day plot - Air Temperature Air Temperature (ATMP): 46.0 °F
5-day plot - Dew Point Dew Point (DEWP): 35.6 °F
5-day plot - Visibility Visibility (VIS): 5.9 nmi
5-day plot - Wind Speed at 10 Meters Wind Speed at 10 meters (WSPD10M): 1.9 kts
5-day plot - Wind Speed at 20 Meters Wind Speed at 20 meters (WSPD20M): 1.9 kts
5-day plot -  Wind Speed, Wind Gust and Atmospheric Pressure Combined plot of Wind Speed, Gust, and Air Pressure
NOS Water Level Observation Network Water Level
Previous observations
TIME
(EST)
5-day plot - Wind Direction
WDIR
 
5-day plot - Wind Speed
WSPD
kts
5-day plot - Wind Gust
GST
kts
5-day plot - Wave Height
WVHT
ft
5-day plot - Dominant Wave Period
DPD
sec
5-day plot - Average Wave Period
APD
sec
5-day plot - Mean Wave Direction
MWD
 
5-day plot - Atmospheric Pressure
PRES
in
5-day plot - Pressure Tendency
PTDY
in
5-day plot - Air Temperature
ATMP
°F
5-day plot - Water Temperature
WTMP
°F
5-day plot - Dew Point
DEWP
°F
5-day plot - Salinity
SAL
psu
5-day plot - Visibility
VIS
nmi
5-day plot - Tide (above MLLW)
TIDE
ft
2023-11-28 04:42 am NW 1.9 5.1----30.15- 46.2- 36.1- 5.9-
2023-11-28 04:36 am N 2.9 5.1----30.15- 46.2- 36.3- 5.9-
2023-11-28 04:30 amWNW 1.9 6.0----30.15- 46.2- 36.5- 5.9-
2023-11-28 04:24 amSSW 1.0 6.0----30.15- 46.2- 36.5- 5.9-
2023-11-28 04:18 amWNW 2.9 6.0----30.14- 46.4- 36.7- 5.9-
2023-11-28 04:12 amNNW 1.9 6.0----30.15- 46.4- 37.8- 5.9-
2023-11-28 04:06 am NW 2.9 7.0----30.15- 46.4- 38.7- 5.9-
2023-11-28 04:00 amNNW 1.0 2.9----30.15+0.00 46.4- 39.2- 5.9-
2023-11-28 03:54 amNNW 1.9 8.0----30.15- 46.6- 40.6- 5.9-
2023-11-28 03:48 amNNW 1.9 5.1----30.15- 46.4- 42.4- 5.9-
2023-11-28 03:42 amNNW 1.0 2.9----30.15- 46.4- 43.2- 5.9-
2023-11-28 03:36 amNNW 1.0 4.1----30.15- 46.4- 43.3- 5.9-
2023-11-28 03:30 amNNE 1.0 4.1----30.15- 46.6- 44.1- 5.9-
2023-11-28 03:24 am NW 1.9 4.1----30.16- 46.6- 44.4- 5.9-
2023-11-28 03:18 am- 0.0 2.9----30.16- 46.6- 44.4- 5.9-
2023-11-28 03:12 amNNW 1.0 4.1----30.15- 46.8- 45.3- 5.9-
2023-11-28 03:06 am- 0.0 4.1----30.15- 46.9- 45.5- 5.9-
2023-11-28 03:00 am N 1.9 5.1----30.15+0.00 47.1- 45.9- 5.9-
2023-11-28 02:54 amNNW 1.9 5.1----30.15- 47.3- 46.2- 5.9-
2023-11-28 02:48 amWNW 1.9 7.0----30.15- 47.3- 46.4- 5.9-
2023-11-28 02:42 am NW 1.9 5.1----30.15- 47.5- 46.8- 5.9-
2023-11-28 02:36 amNNW 1.0 5.1----30.15- 47.5- 46.9- 5.9-
2023-11-28 02:30 am W 1.0 4.1----30.14- 47.5- 47.3- 5.9-
2023-11-28 02:24 am W 1.9 5.1----30.14- 47.7- 47.3- 5.9-
2023-11-28 02:18 am NW 1.0 5.1----30.14- 47.8- 47.7- 5.9-
2023-11-28 02:12 amNNW 1.9 8.0----30.15- 48.2- 47.7- 5.9-
2023-11-28 02:06 am W 1.0 6.0----30.14- 48.2- 48.2- 5.9-
2023-11-28 02:00 amWNW 1.9 7.0----30.14+0.00 48.4- 48.4- 5.9-
2023-11-28 01:54 am NW 1.0 4.1----30.14- 48.4- 48.4- 5.9-
2023-11-28 01:48 am- 0.0 4.1----30.14- 48.2- 48.2- 5.9-
2023-11-28 01:42 am W 1.0 2.9----30.14- 48.7- 48.7- 5.9-
2023-11-28 01:36 amSSW 1.0 2.9----30.15- 48.9- 48.9- 5.9-
2023-11-28 01:30 amSSW 1.0 4.1----30.15- 48.9- 48.9- 5.9-
2023-11-28 01:24 am NW 1.9 4.1----30.15- 48.7- 48.7- 5.9-
2023-11-28 01:18 am- 0.0 6.0----30.15- 48.9- 48.9- 5.9-
2023-11-28 01:12 am W 1.0 4.1----30.14- 48.9- 48.9- 5.9-
2023-11-28 01:06 am N 1.0 4.1----30.14- 49.1- 49.1- 5.9-
2023-11-28 01:00 amWSW 1.0 5.1----30.15+0.00 49.3- 49.3- 5.9-
2023-11-28 12:54 amWNW 1.0 2.9----30.15- 49.3- 49.3- 5.9-
2023-11-28 12:48 am NW 1.9 2.9----30.14- 49.5- 49.5- 5.9-
2023-11-28 12:42 am- 0.0 4.1----30.15- 49.5- 49.5- 5.9-
2023-11-28 12:36 am- 0.0 4.1----30.15- 49.6- 49.6- 5.9-
2023-11-28 12:30 amWNW 1.9 4.1----30.15- 49.8- 49.8- 5.9-
2023-11-28 12:24 amWNW 2.9 5.1----30.15- 50.0- 50.0- 5.9-
2023-11-28 12:18 am NW 1.9 6.0----30.15- 50.0- 50.0- 5.9-
2023-11-28 12:12 am- 0.0 4.1----30.16- 50.5- 50.5- 5.9-
2023-11-28 12:06 amWSW 1.9 5.1----30.16- 50.5- 50.5- 5.9-
2023-11-28 12:00 amWSW 1.0 2.9----30.16+0.03 50.9- 50.9- 5.9-
2023-11-27 11:54 pm SW 1.0 2.9----30.16- 50.9- 50.9- 5.9-
2023-11-27 11:48 pm W 1.9 5.1----30.16- 50.9- 50.9- 5.9-
2023-11-27 11:42 pmWNW 1.0 5.1----30.16- 50.9- 50.9- 5.9-
2023-11-27 11:36 pm- 0.0 5.1----30.17- 51.1- 51.1- 5.9-
2023-11-27 11:30 pm NW 1.9 5.1----30.16- 50.7- 50.7- 5.9-
2023-11-27 11:24 pm- 0.0 2.9----30.15- 50.5- 50.5- 5.9-
2023-11-27 11:18 pm- 0.0 4.1----30.16- 50.5- 50.5- 5.9-
2023-11-27 11:12 pmNNW 1.9 4.1----30.15- 50.4- 50.4- 5.9-
2023-11-27 11:06 pmNNW 1.0 2.9----30.15- 50.4- 50.4- 5.9-
2023-11-27 11:00 pm- 0.0 4.1----30.15+0.04 50.4- 50.4- 5.9-
2023-11-27 10:54 pm- 0.0 1.9----30.15- 50.4- 50.4- 5.9-
2023-11-27 10:48 pm W 1.0 4.1----30.15- 50.5- 50.5- 5.9-
2023-11-27 10:42 pm- 0.0 1.9----30.15- 50.5- 50.5- 5.9-
2023-11-27 10:36 pm- 0.0 2.9----30.14- 50.7- 50.5- 5.9-
2023-11-27 10:30 pm- 0.0 4.1----30.14- 50.7- 50.5- 5.9-
2023-11-27 10:24 pm- 0.0 4.1----30.14- 50.9- 50.9- 5.9-
2023-11-27 10:18 pmWNW 1.0 2.9----30.14- 51.1- 51.1- 5.9-
2023-11-27 10:12 pm- 0.0 1.9----30.14- 51.4- 51.4- 5.9-
2023-11-27 10:06 pmWSW 1.0 1.9----30.14- 51.3- 51.3- 5.9-
2023-11-27 10:00 pmWNW 1.9 4.1----30.14+0.04 51.4- 51.4- 5.9-
2023-11-27 09:54 pmWSW 1.0 4.1----30.15- 51.4- 51.4- 5.9-
2023-11-27 09:48 pm- 0.0 5.1----30.14- 51.4- 51.3- 5.9-
2023-11-27 09:42 pmSSW 1.0 2.9----30.14- 51.6- 51.4- 5.9-
2023-11-27 09:36 pm NW 1.0 2.9----30.14- 51.6- 51.4- 5.9-
2023-11-27 09:30 pm W 1.0 2.9----30.14- 51.6- 51.4- 5.9-
2023-11-27 09:24 pm W 1.0 2.9----30.13- 51.8- 51.6- 5.9-
2023-11-27 09:18 pm- 0.0 2.9----30.13- 52.2- 52.0- 5.9-
2023-11-27 09:12 pmWNW 1.9 4.1----30.13- 52.3- 52.2- 5.9-
2023-11-27 09:06 pm N 1.0 2.9----30.13- 52.7- 52.5- 5.9-
2023-11-27 09:00 pmWNW 1.0 1.9----30.13+0.04 52.7- 52.7- 5.9-
2023-11-27 08:54 pm- 0.0 1.0----30.13- 52.9- 52.7- 5.9-
2023-11-27 08:48 pm- 0.0 1.9----30.12- 52.9- 52.7- 5.9-
2023-11-27 08:42 pm- 0.0 2.9----30.12- 52.9- 52.9- 5.9-
2023-11-27 08:36 pm- 0.0 4.1----30.12- 53.1- 53.1- 5.9-
2023-11-27 08:30 pm W 1.0 2.9----30.12----- 5.9-
2023-11-27 08:24 pmWSW 1.9 5.1----30.12----- 5.9-
2023-11-27 08:18 pm-------30.12-------
2023-11-27 08:12 pm-------30.12-------
2023-11-27 08:06 pm-------30.12-------
2023-11-27 08:00 pm W 1.9 4.1----30.11+0.04---- 5.9-
2023-11-27 07:54 pm W 1.9 2.9----30.11----- 5.9-
2023-11-27 07:48 pm W 1.9 4.1------ 53.2- 53.2- 5.9-
2023-11-27 07:42 pm W 1.0 2.9------ 53.2- 53.2- 5.9-
2023-11-27 07:36 pm W 1.0 1.9------ 53.2- 53.2- 5.9-
2023-11-27 07:30 pm W 1.0 2.9----30.11----- 5.9-
2023-11-27 07:24 pm- 0.0 2.9----30.11----- 5.9-
2023-11-27 07:00 pm W 1.0 2.9----30.10+0.06---- 5.9-
2023-11-27 06:54 pmWNW 1.0 5.1----30.11----- 5.9-
2023-11-27 06:48 pm W 1.9 4.1----30.10- 54.5- 54.5- 5.9-
2023-11-27 06:42 pm W 1.9 5.1----30.10- 54.7- 54.7- 5.9-
2023-11-27 06:36 pm- 0.0 2.9----30.10- 54.5- 54.5- 5.9-
2023-11-27 06:30 pm- 0.0 4.1----30.10- 54.5- 54.5- 5.9-
2023-11-27 06:24 pm W 1.9 2.9----30.10- 54.9- 54.9- 5.9-
2023-11-27 06:18 pm W 1.9 2.9----30.10- 54.9- 54.9- 5.9-
2023-11-27 06:12 pm- 0.0 2.9----30.09- 54.9- 54.9- 5.9-
2023-11-27 06:06 pm- 0.0 1.9----30.09- 55.0- 55.0- 5.9-
2023-11-27 06:00 pm W 1.0 2.9----30.09+0.05 55.2- 53.6- 5.9-
2023-11-27 05:54 pm W 1.0 1.9----30.09- 55.2- 50.5- 5.9-
2023-11-27 05:48 pm- 0.0 1.0----30.08- 55.4- 49.3- 5.9-
2023-11-27 05:42 pm- 0.0 1.9----30.08- 55.8- 48.9- 5.9-
2023-11-27 05:36 pm- 0.0 1.0----30.08- 56.3- 48.6- 5.9-
2023-11-27 05:30 pm W 1.0 2.9----30.07- 56.7- 47.8- 5.9-
2023-11-27 05:24 pm- 0.0 4.1----30.07- 57.0- 48.2- 5.9-
2023-11-27 05:18 pm SW 1.0 2.9----30.08- 57.4- 48.2- 5.9-
2023-11-27 05:12 pm- 0.0 4.1----30.08- 58.1- 48.2- 5.9-
2023-11-27 05:06 pm- 0.0 4.1----30.07- 58.8- 48.4- 5.9-
2023-11-27 05:00 pm NW 1.0 5.1----30.07+0.04 59.2- 48.6- 5.9-
2023-11-27 04:54 pm W 1.0 2.9----30.07- 59.4- 48.4- 5.9-
2023-11-27 04:48 pm NW 1.0 4.1----30.07- 59.4- 47.7- 5.9-
2023-11-27 04:42 pmWNW 1.9 5.1----30.07- 59.4- 47.8- 5.9-
2023-11-27 04:36 pmWNW 1.9 4.1----30.06- 59.7- 47.1- 5.9-
2023-11-27 04:30 pm- 0.0 7.0----30.06- 59.9- 46.8- 5.9-
2023-11-27 04:24 pm W 2.9 7.0----30.06- 60.3- 47.1- 5.9-
2023-11-27 04:18 pm W 1.9 5.1----30.05- 61.3- 48.7- 5.9-
2023-11-27 04:12 pm NW 1.9 6.0----30.05- 61.7- 49.5- 5.9-
2023-11-27 04:06 pmWSW 2.9 5.1----30.05- 61.9- 49.5- 5.9-
2023-11-27 04:00 pmWSW 1.0 5.1----30.05+0.00 62.1- 49.6- 5.9-
2023-11-27 03:54 pmWSW 2.9 5.1----30.05- 61.5- 49.6- 5.9-
2023-11-27 03:48 pm W 4.1 7.0----30.04- 61.5- 50.0- 5.9-
2023-11-27 03:42 pmWSW 2.9 8.9----30.04- 61.7- 49.8- 5.9-
2023-11-27 03:36 pmWSW 2.9 6.0----30.04- 61.7- 49.3- 5.9-
2023-11-27 03:30 pm W 4.1 7.0----30.04- 61.5- 50.9- 5.9-
2023-11-27 03:24 pmWSW 2.9 8.9----30.04- 61.3- 49.3- 5.9-
2023-11-27 03:18 pm W 2.9 7.0----30.04- 61.3- 48.7- 5.9-
2023-11-27 03:12 pmWSW 2.9 9.9----30.04- 61.5- 48.7- 5.9-
2023-11-27 03:06 pmWSW 5.1 8.0----30.04- 61.3- 48.0- 5.9-
2023-11-27 03:00 pm-------30.04-0.02---- 5.9-
2023-11-27 02:54 pm-------30.04----- 5.9-
2023-11-27 02:48 pmWNW 1.0 5.1----30.04- 62.8- 48.7- 5.9-
2023-11-27 02:42 pmWNW 1.9 4.1----30.03- 62.1- 48.2- 5.9-
2023-11-27 02:36 pm W 1.9 8.0----30.04- 62.2- 48.0- 5.9-
2023-11-27 02:30 pmWSW 4.1 7.0----30.04- 61.9- 47.3- 5.9-
2023-11-27 02:24 pmWSW 2.9 11.1----30.03- 61.2- 47.3- 5.9-
2023-11-27 02:18 pmWSW 6.0 11.1----30.03- 61.2- 48.0- 5.9-
2023-11-27 02:12 pmWSW 2.9 6.0----30.03- 63.0- 48.7- 5.9-
2023-11-27 02:06 pm W 1.9 4.1----30.03- 63.3- 48.7- 5.9-
2023-11-27 02:00 pm W 1.9 6.0----30.03-0.06 63.3- 48.0- 5.9-
2023-11-27 01:54 pm W 2.9 7.0----30.03- 62.4- 47.8- 5.9-
2023-11-27 01:48 pmWSW 1.9 6.0----30.03- 62.2- 47.8- 5.9-
2023-11-27 01:42 pm W 4.1 11.1----30.03- 62.2- 47.3- 5.9-
2023-11-27 01:36 pm W 7.0 12.0----30.03- 62.2- 48.2- 5.9-
2023-11-27 01:30 pmESE 1.0 5.1----30.04- 63.5- 50.2- 5.9-
2023-11-27 01:24 pm NW 1.0 6.0----30.04- 62.2- 49.1- 5.9-
2023-11-27 01:18 pm W 1.9 7.0----30.04- 62.2- 49.8- 5.9-
2023-11-27 01:12 pm W 4.1 7.0----30.04- 62.8- 49.8- 5.9-
2023-11-27 01:06 pm W 2.9 7.0----30.04- 62.2- 50.5- 5.9-
2023-11-27 01:00 pm W 2.9 5.1----30.04-0.07 61.5- 50.2- 5.9-
2023-11-27 12:54 pm W 2.9 8.9----30.04- 61.2- 49.8- 5.9-
2023-11-27 12:48 pm W 1.9 7.0----30.04- 62.1- 50.2- 5.9-
2023-11-27 12:42 pm W 5.1 8.9----30.05- 61.9- 49.6- 5.9-
2023-11-27 12:36 pm W 1.9 6.0----30.05- 61.5- 48.7- 5.9-
2023-11-27 12:30 pmWNW 4.1 8.0----30.05- 61.5- 50.2- 5.9-
2023-11-27 12:24 pmWNW 4.1 8.0----30.05- 61.2- 50.0- 5.9-
2023-11-27 12:18 pm W 2.9 8.9----30.06- 61.2- 50.2- 5.9-
2023-11-27 12:12 pmWSW 1.9 8.0----30.06- 61.9- 51.1- 5.9-
2023-11-27 12:06 pm NW 2.9 8.9----30.06- 61.3- 50.9- 5.9-
2023-11-27 12:00 pm W 2.9 6.0----30.06-0.04 61.9- 51.3- 5.9-
2023-11-27 11:54 am NW 1.9 11.1----30.07- 62.2- 52.5- 5.9-
2023-11-27 11:48 amWSW 5.1 9.9----30.08- 61.3- 51.3- 5.9-
2023-11-27 11:42 amWSW 1.9 7.0----30.08- 61.2- 52.7- 5.9-
2023-11-27 11:36 am W 4.1 8.9----30.08- 60.8- 52.3- 5.9-
2023-11-27 11:30 amWNW 1.9 8.0----30.08- 61.0- 52.9- 5.9-
2023-11-27 11:24 am W 2.9 6.0----30.08- 59.9- 53.8- 5.9-
2023-11-27 11:18 amSSE 1.9 6.0----30.08- 61.2- 60.6- 5.9-
2023-11-27 11:12 am SW 1.9 7.0----30.09- 60.8- 60.8- 5.9-
2023-11-27 11:06 am W 1.9 5.1----30.09- 59.7- 59.7- 5.9-
2023-11-27 11:00 amWSW 5.1 7.0----30.09+0.01 58.6- 58.6- 5.9-
2023-11-27 10:54 amWSW 1.0 5.1----30.09- 59.4- 59.4- 5.9-
2023-11-27 10:48 am W 4.1 7.0----30.10- 58.8- 58.8- 5.9-
2023-11-27 10:42 am W 1.9 7.0----30.10- 59.4- 59.4- 5.9-
2023-11-27 10:36 am- 0.0 7.0----30.10- 57.9- 57.9- 5.9-
2023-11-27 10:30 amWSW 1.9 6.0----30.10- 58.1- 58.1- 5.9-
2023-11-27 10:24 amWSW 2.9 7.0----30.10- 57.6- 57.6- 5.9-
2023-11-27 10:18 am W 1.0 4.1----30.10- 58.5- 58.5- 5.9-
2023-11-27 10:12 am N 1.9 7.0----30.10- 58.3- 58.3- 5.9-
2023-11-27 10:06 am W 1.0 6.0----30.11- 57.4- 57.4- 5.9-
2023-11-27 10:00 am W 2.9 6.0----30.11+0.06 56.7- 56.7- 5.9-
2023-11-27 09:54 am W 2.9 7.0----30.11- 57.0- 57.0- 5.9-
2023-11-27 09:48 amWNW 1.9 5.1----30.11- 56.8- 56.7- 5.9-
2023-11-27 09:42 am NW 2.9 6.0----30.11- 55.9- 55.8- 4.3-
2023-11-27 09:36 amWNW 4.1 8.9----30.11- 55.8- 55.6- 4.9-
2023-11-27 09:30 am NW 1.0 2.9----30.10- 56.3- 56.1- 5.9-
2023-11-27 09:24 amNNW 4.1 8.0----30.10- 55.4- 55.2- 5.9-
2023-11-27 09:18 am N 1.9 7.0----30.10- 55.6- 55.4- 5.9-
2023-11-27 09:12 amENE 1.0 7.0----30.10- 54.9- 54.7- 5.9-
2023-11-27 09:06 am NW 1.9 8.0----30.10- 55.6- 55.4- 5.9-
2023-11-27 09:00 amWSW 1.9 7.0----30.10+0.07 55.8- 55.6- 5.9-
2023-11-27 08:54 amWNW 1.9 8.0----30.10- 56.5- 56.3- 5.9-
2023-11-27 08:48 am NW 2.9 8.0----30.10- 56.5- 56.3- 5.9-
2023-11-27 08:42 am W 1.9 6.0----30.10- 56.7- 56.5- 5.9-
2023-11-27 08:36 am W 1.0 4.1----30.10- 56.8- 56.7- 5.9-
2023-11-27 08:30 am W 1.9 5.1----30.09- 56.3- 56.1- 5.9-
2023-11-27 08:24 am NW 1.9 5.1----30.09- 55.8- 55.6- 5.9-
2023-11-27 08:18 am W 2.9 6.0----30.09- 54.7- 54.5- 5.9-
2023-11-27 08:12 am W 1.0 5.1----30.09- 54.3- 54.1- 5.9-
2023-11-27 08:06 am W 1.9 5.1----30.08- 54.3- 54.1- 5.9-
2023-11-27 08:00 am SW 1.9 6.0----30.08+0.06 54.1- 54.0- 5.9-
2023-11-27 07:54 am NW 2.9 6.0----30.07- 54.1- 54.0- 5.9-
2023-11-27 07:48 am W 1.9 6.0----30.07- 54.0- 53.8- 5.9-
2023-11-27 07:42 amWNW 1.9 6.0----30.07- 54.0- 53.8- 5.9-
2023-11-27 07:36 am W 1.9 4.1----30.07- 54.0- 53.8- 5.9-
2023-11-27 07:30 am N 1.9 6.0----30.07- 54.0- 53.8- 5.9-
2023-11-27 07:24 am W 1.9 6.0----30.06- 54.0- 53.8- 5.9-
2023-11-27 07:18 am S 1.0 5.1----30.06- 54.1- 54.0- 5.9-
2023-11-27 07:12 am SW 1.9 4.1----30.06- 54.0- 53.8- 5.9-
2023-11-27 07:06 am- 0.0 4.1----30.06- 54.0- 53.8- 5.9-
2023-11-27 07:00 am W 1.0 4.1----30.05+0.05 53.8- 53.6- 5.9-
2023-11-27 06:54 amENE 1.0 5.1----30.05- 54.0- 53.8- 5.9-
2023-11-27 06:48 am W 1.0 5.1----30.05- 53.6- 53.4- 5.9-
2023-11-27 06:42 am NW 1.9 5.1----30.05- 53.4- 53.2- 5.9-
2023-11-27 06:36 amWNW 1.0 6.0----30.05- 53.4- 53.2- 5.9-
2023-11-27 06:30 am NW 1.9 7.0----30.05- 53.4- 53.2- 5.9-
2023-11-27 06:24 am N 1.9 7.0----30.04- 53.4- 53.2- 5.9-
2023-11-27 06:18 am W 1.9 7.0----30.04- 53.6- 53.4- 5.9-
2023-11-27 06:12 amWNW 1.0 2.9----30.04- 53.8- 53.6- 5.9-
2023-11-27 06:06 am- 0.0 6.0----30.03- 53.8- 53.6- 5.9-
2023-11-27 06:00 am SW 1.9 4.1----30.03+0.05 53.8- 53.6- 5.9-
2023-11-27 05:54 amWNW 1.0 7.0----30.03- 53.8- 53.6- 5.9-
2023-11-27 05:48 am W 1.9 6.0----30.03- 54.0- 53.8- 5.9-
2023-11-27 05:42 am NW 1.9 6.0----30.03- 53.8- 53.6- 5.9-
2023-11-27 05:36 am E 1.9 7.0----30.02- 54.0- 53.8- 5.9-
2023-11-27 05:30 amWNW 2.9 5.1----30.02- 53.8- 53.6- 5.9-
2023-11-27 05:24 am NW 2.9 6.0----30.01- 53.8- 53.6- 5.9-
2023-11-27 05:18 am NW 1.0 4.1----30.01- 54.0- 53.8- 5.9-
2023-11-27 05:12 amNNW 1.0 5.1----30.01- 54.1- 54.0- 5.9-
2023-11-27 05:06 amNNE 1.0 6.0----30.01- 54.1- 54.0- 5.9-
2023-11-27 05:00 am SW 1.0 4.1----30.01+0.05 54.1- 54.0- 5.9-
2023-11-27 04:54 am W 1.9 6.0----30.01- 54.1- 54.0- 5.9-